User: anonymous   Login
Location: downtown San Diego
(32.7310°N, 117.1990°W)
Time: 23:11:37
(UTC-07:00)
Language:

CZ-2C R/B - Orbit

View from above orbital plane
View from above orbital plane
View from above satellite
View from above satellite

Ground track
Ground track

The orbit data is extracted from the following two-line orbital elements,

1 31114U 07010B   19113.64793584 -.00000042  00000-0 -99131-6 0  9996
2 31114  98.3194 348.4562 0060728  53.3715 307.3026 14.19292027623330
Epoch (UTC): 23 April 2019 15:33:01
Eccentricity: 0.0060728
inclination: 98.3194°
perigee height: 784 km
apogee height: 871 km
right ascension of ascending node: 348.4562°
argument of perigee: 53.3715°
revolutions per day: 14.19292027
mean anomaly at epoch: 307.3026°
orbit number at epoch: 62333

The dashed part of the orbit path shows where the satellite is in the earth's shadow,  

DLR